When you browse on this site, cookies collect data to enhance your experience and personalize the content and advertising you see.
Visit our Privacy Policy to learn more. By continuing to use the site, you agree to this use of cookies and data.

Hourly Weather Mangush

Today, 27 September, Sunday

Time Temperature Precipitation Wind Pressure Humidity
00:00 +22°C° 0 mm 7 mps 752 mmHg 53%
01:00 +21°C° 0 mm 8 mps 752 mmHg 52%
02:00 +21°C° 0 mm 9 mps 752 mmHg 51%
03:00 +19°C° 0 mm 9 mps 752 mmHg 53%
04:00 +18°C° 0 mm 9 mps 753 mmHg 56%
05:00 +17°C° 0 mm 9 mps 753 mmHg 59%
06:00 +17°C° 0 mm 9 mps 753 mmHg 58%
07:00 +18°C° 0 mm 10 mps 753 mmHg 58%
08:00 +18°C° 0 mm 10 mps 754 mmHg 56%
09:00 +21°C° 0 mm 9 mps 754 mmHg 52%
10:00 +22°C° 0 mm 9 mps 754 mmHg 49%
11:00 +23°C° 0 mm 8 mps 754 mmHg 46%
12:00 +24°C° 0 mm 8 mps 754 mmHg 44%
13:00 +26°C° 0 mm 7 mps 754 mmHg 42%
14:00 +27°C° 0 mm 7 mps 754 mmHg 41%
15:00 +27°C° 0.1 mm 6 mps 754 mmHg 43%
16:00 +26°C° 0.1 mm 5 mps 754 mmHg 46%
17:00 +25°C° 0.1 mm 4 mps 754 mmHg 48%
18:00 +25°C° 0.2 mm 4 mps 755 mmHg 52%
19:00 +23°C° 0.2 mm 4 mps 755 mmHg 57%
20:00 +22°C° 0.2 mm 4 mps 755 mmHg 61%
21:00 +21°C° 0.2 mm 4 mps 756 mmHg 63%
22:00 +21°C° 0.2 mm 4 mps 756 mmHg 64%
23:00 +21°C° 0.2 mm 4 mps 756 mmHg 66%

Tomorrow, 28 September, Monday

Time Temperature Precipitation Wind Pressure Humidity
00:00 +20°C° 0 mm 4 mps 757 mmHg 67%
01:00 +20°C° 0 mm 4 mps 757 mmHg 67%
02:00 +19°C° 0 mm 4 mps 757 mmHg 67%
03:00 +19°C° 0 mm 4 mps 757 mmHg 69%
04:00 +18°C° 0 mm 4 mps 758 mmHg 70%
05:00 +17°C° 0 mm 4 mps 758 mmHg 71%
06:00 +17°C° 0 mm 5 mps 758 mmHg 67%
07:00 +19°C° 0 mm 5 mps 758 mmHg 62%
08:00 +20°C° 0 mm 6 mps 758 mmHg 58%
09:00 +21°C° 0 mm 5 mps 758 mmHg 55%
10:00 +22°C° 0 mm 5 mps 758 mmHg 51%
11:00 +23°C° 0 mm 5 mps 759 mmHg 48%
12:00 +25°C° 0 mm 5 mps 758 mmHg 45%
13:00 +26°C° 0 mm 5 mps 758 mmHg 43%
14:00 +26°C° 0 mm 4 mps 758 mmHg 41%
15:00 +26°C° 0 mm 4 mps 758 mmHg 43%
16:00 +25°C° 0 mm 3 mps 758 mmHg 44%
17:00 +24°C° 0 mm 2 mps 758 mmHg 46%
18:00 +22°C° 0 mm 3 mps 758 mmHg 47%
19:00 +22°C° 0 mm 3 mps 758 mmHg 48%
20:00 +21°C° 0 mm 4 mps 758 mmHg 49%
21:00 +21°C° 0 mm 5 mps 758 mmHg 50%
22:00 +21°C° 0 mm 5 mps 758 mmHg 52%
23:00 +21°C° 0 mm 6 mps 757 mmHg 53%

Day after tomorrow, 29 September, Tuesday

Time Temperature Precipitation Wind Pressure Humidity
00:00 +20°C° 0 mm 6 mps 757 mmHg 55%
01:00 +20°C° 0 mm 6 mps 757 mmHg 58%
02:00 +18°C° 0 mm 7 mps 757 mmHg 60%
03:00 +17°C° 0 mm 7 mps 757 mmHg 62%
04:00 +17°C° 0 mm 7 mps 757 mmHg 64%
05:00 +16°C° 0 mm 8 mps 757 mmHg 67%
06:00 +16°C° 0 mm 8 mps 757 mmHg 66%
07:00 +17°C° 0 mm 8 mps 757 mmHg 65%
08:00 +17°C° 0 mm 8 mps 756 mmHg 65%
09:00 +18°C° 0 mm 8 mps 756 mmHg 62%
10:00 +18°C° 0 mm 8 mps 756 mmHg 58%
11:00 +20°C° 0 mm 8 mps 756 mmHg 55%
12:00 +21°C° 0 mm 8 mps 755 mmHg 51%
13:00 +22°C° 0 mm 8 mps 755 mmHg 46%
14:00 +23°C° 0 mm 8 mps 755 mmHg 42%
15:00 +23°C° 0 mm 8 mps 754 mmHg 42%
16:00 +23°C° 0 mm 8 mps 754 mmHg 41%
17:00 +23°C° 0 mm 8 mps 753 mmHg 41%
18:00 +23°C° 0 mm 8 mps 753 mmHg 42%
19:00 +22°C° 0 mm 8 mps 752 mmHg 42%
20:00 +22°C° 0 mm 9 mps 752 mmHg 43%
21:00 +22°C° 0 mm 8 mps 752 mmHg 44%
22:00 +21°C° 0 mm 8 mps 751 mmHg 46%
23:00 +21°C° 0 mm 8 mps 751 mmHg 47%

30 September, Wednesday

Time Temperature Precipitation Wind Pressure Humidity
00:00 +20°C° 0 mm 8 mps 751 mmHg 49%
01:00 +18°C° 0 mm 9 mps 751 mmHg 52%
02:00 +18°C° 0 mm 9 mps 751 mmHg 54%
03:00 +17°C° 0 mm 9 mps 750 mmHg 58%
04:00 +16°C° 0 mm 9 mps 750 mmHg 61%
05:00 +16°C° 0 mm 10 mps 750 mmHg 65%
06:00 +16°C° 0 mm 10 mps 749 mmHg 65%
07:00 +16°C° 0 mm 10 mps 749 mmHg 64%
08:00 +17°C° 0 mm 11 mps 749 mmHg 64%
09:00 +18°C° 0 mm 11 mps 749 mmHg 60%
10:00 +19°C° 0 mm 11 mps 749 mmHg 57%
11:00 +21°C° 0 mm 11 mps 749 mmHg 53%
12:00 +21°C° 0.3 mm 10 mps 748 mmHg 51%
13:00 +22°C° 0.3 mm 10 mps 748 mmHg 49%
14:00 +22°C° 0.3 mm 10 mps 748 mmHg 47%
15:00 +22°C° 1 mm 9 mps 748 mmHg 51%
16:00 +21°C° 1 mm 8 mps 747 mmHg 55%
17:00 +21°C° 1 mm 8 mps 747 mmHg 59%
18:00 +21°C° 0.6 mm 8 mps 748 mmHg 66%
19:00 +20°C° 0.6 mm 8 mps 748 mmHg 72%
20:00 +18°C° 0.6 mm 8 mps 748 mmHg 79%
21:00 +18°C° 1.1 mm 7 mps 748 mmHg 81%
22:00 +17°C° 1.1 mm 7 mps 749 mmHg 83%
23:00 +17°C° 1.1 mm 6 mps 749 mmHg 85%

1 October, Thursday

Time Temperature Precipitation Wind Pressure Humidity
00:00 +17°C° 0.2 mm 6 mps 749 mmHg 79%
01:00 +17°C° 0.2 mm 7 mps 749 mmHg 73%
02:00 +16°C° 0.2 mm 7 mps 750 mmHg 67%
03:00 +16°C° 0 mm 7 mps 750 mmHg 70%
04:00 +15°C° 0 mm 7 mps 750 mmHg 72%
05:00 +15°C° 0 mm 6 mps 750 mmHg 75%
06:00 +16°C° 0 mm 6 mps 750 mmHg 73%
07:00 +16°C° 0 mm 6 mps 750 mmHg 72%
08:00 +17°C° 0 mm 7 mps 751 mmHg 71%
09:00 +17°C° 0 mm 6 mps 751 mmHg 68%
10:00 +19°C° 0 mm 6 mps 751 mmHg 66%
11:00 +19°C° 0 mm 6 mps 751 mmHg 64%
12:00 +20°C° 0 mm 6 mps 751 mmHg 62%
13:00 +20°C° 0 mm 6 mps 751 mmHg 61%
14:00 +21°C° 0 mm 6 mps 751 mmHg 59%
15:00 +20°C° 0 mm 6 mps 751 mmHg 58%
16:00 +20°C° 0 mm 5 mps 751 mmHg 56%
17:00 +20°C° 0 mm 4 mps 750 mmHg 55%
18:00 +19°C° 0.1 mm 4 mps 751 mmHg 61%
19:00 +18°C° 0.1 mm 3 mps 751 mmHg 67%
20:00 +18°C° 0.1 mm 3 mps 751 mmHg 73%
21:00 +18°C° 0.1 mm 4 mps 751 mmHg 69%
22:00 +17°C° 0.1 mm 5 mps 751 mmHg 65%
23:00 +17°C° 0.1 mm 6 mps 751 mmHg 61%

2 October, Friday

Time Temperature Precipitation Wind Pressure Humidity
00:00 +17°C° 0 mm 7 mps 751 mmHg 63%
01:00 +16°C° 0 mm 7 mps 751 mmHg 66%
02:00 +16°C° 0 mm 7 mps 751 mmHg 68%
03:00 +16°C° 0 mm 7 mps 751 mmHg 69%
04:00 +16°C° 0 mm 7 mps 751 mmHg 70%
05:00 +15°C° 0 mm 7 mps 751 mmHg 71%
06:00 +16°C° 0 mm 7 mps 751 mmHg 67%
07:00 +16°C° 0 mm 8 mps 751 mmHg 64%
08:00 +17°C° 0 mm 8 mps 751 mmHg 61%
09:00 +17°C° 0 mm 7 mps 751 mmHg 57%
10:00 +18°C° 0 mm 7 mps 751 mmHg 54%
11:00 +20°C° 0 mm 6 mps 752 mmHg 50%
12:00 +20°C° 0.1 mm 6 mps 751 mmHg 49%
13:00 +21°C° 0.1 mm 5 mps 751 mmHg 48%
14:00 +21°C° 0.1 mm 4 mps 751 mmHg 48%
15:00 +21°C° 0.2 mm 3 mps 751 mmHg 51%
16:00 +20°C° 0.2 mm 2 mps 751 mmHg 54%
17:00 +21°C° 0.2 mm 1 mps 752 mmHg 58%
18:00 +19°C° 0.7 mm 2 mps 752 mmHg 63%
19:00 +19°C° 0.7 mm 2 mps 752 mmHg 68%
20:00 +18°C° 0.7 mm 2 mps 753 mmHg 74%
21:00 +18°C° 0.5 mm 3 mps 753 mmHg 78%
22:00 +18°C° 0.5 mm 3 mps 753 mmHg 81%
23:00 +17°C° 0.5 mm 3 mps 753 mmHg 85%
Show more